Location: Ferintosh
(52.7647°N, 112.9692°W)
Time: 17:58:12
(UTC+00:00)

Explorer 7 - Pass Details

Date: 23 May 2024
Orbit: 466 x 622 km, 50.3° (Epoch: 15 June)

Event Time Altitude Azimuth Distance (km) Brightness Sun altitude
Rises 07:49:47 0° 249° (WSW) 2,560 - -16.4°
Reaches altitude 10° 07:51:56 10° 245° (WSW) 1,701 - -16.4°
Exits shadow 07:53:24 22° 237° (WSW) 1,152 8.1 -16.3°
Maximum altitude 07:55:42 53° 168° (SSE) 638 6.7 -16.3°
Drops below altitude 10° 07:59:40 10° 91° (E) 1,795 9.5 -16.2°
Sets 08:01:59 0° 87° (E) 2,718 10.5 -16.2°
